EST,Max TemperatureF,Mean TemperatureF,Min TemperatureF,Max Dew PointF,MeanDew PointF,Min DewpointF,Max Humidity, Mean Humidity, Min Humidity, Max Sea Level PressureIn, Mean Sea Level PressureIn, Min Sea Level PressureIn, Max VisibilityMiles, Mean VisibilityMiles, Min VisibilityMiles, Max Wind SpeedMPH, Mean Wind SpeedMPH, Max Gust SpeedMPH,PrecipitationIn, CloudCover, Events, WindDirDegrees
2011-11-1,57,52,46,46,41,34,87,68,44,30.34,30.26,30.21,10,10,8,18,7,22,0.05,2,,26
2011-11-2,57,46,35,39,35,30,87,68,48,30.43,30.37,30.32,10,10,10,8,2,,0.00,0,,354
2011-11-3,60,50,39,46,42,36,93,77,55,30.29,30.13,29.99,10,10,8,13,3,,0.00,0,,191
2011-11-4,55,47,39,45,40,27,93,76,43,30.12,29.97,29.91,10,9,1,20,5,26,0.00,1,,19
2011-11-5,50,44,37,32,27,21,65,53,47,30.46,30.37,30.21,10,10,10,18,13,25,0.00,0,,34
2011-11-6,55,44,33,39,36,30,87,70,51,30.56,30.51,30.45,10,10,10,8,2,,0.00,7,,9
2011-11-7,60,48,37,48,42,34,93,78,59,30.42,30.37,30.31,10,9,0,10,2,,0.00,0,,231
2011-11-8,64,50,37,50,41,34,93,72,42,30.31,30.27,30.24,10,10,6,7,1,,0.00,0,,268
2011-11-9,64,50,37,55,47,34,94,86,72,30.24,30.16,30.03,10,6,0,10,2,,0.00,4,,109
2011-11-10,57,50,44,57,49,37,100,87,67,29.99,29.84,29.73,10,5,0,17,4,29,0.00,7,,319
2011-11-11,48,45,42,36,28,25,62,50,40,30.10,29.86,29.71,10,10,10,20,15,32,0.00,3,,289
2011-11-12,60,48,35,37,32,25,70,49,36,30.21,30.17,30.12,10,10,10,21,11,28,0.00,0,,217
2011-11-13,62,56,51,46,39,36,67,54,39,30.21,30.14,30.06,10,10,10,17,13,25,0.00,0,,192
2011-11-14,71,64,57,52,50,43,72,62,50,30.06,29.95,29.85,10,10,10,18,15,28,0.00,0,,206
2011-11-15,68,64,59,55,53,48,77,69,59,30.01,29.91,29.84,10,10,10,18,11,25,0.00,4,,239
2011-11-16,62,58,55,61,55,52,94,89,82,29.97,29.84,29.71,10,7,2,12,4,16,1.22,7,,158
2011-11-17,53,45,37,52,38,25,94,76,49,30.12,29.91,29.80,10,10,5,18,8,29,0.29,6,,327
2011-11-18,42,36,30,23,21,18,75,50,42,30.50,30.40,30.18,10,10,10,16,11,28,0.00,0,,297
2011-11-19,55,42,30,46,33,21,80,65,47,30.50,30.44,30.34,10,10,10,16,5,22,0.00,0,,192
2011-11-20,64,58,53,52,49,46,82,72,63,30.31,30.23,30.18,10,10,10,21,11,26,0.00,3,,220
2011-11-21,60,56,51,55,50,43,94,84,71,30.29,30.22,30.14,10,8,2,14,4,17,0.14,8,,43
2011-11-22,60,56,53,57,52,48,94,87,82,30.31,30.21,29.97,10,9,5,22,7,30,0.17,8,,104
2011-11-23,64,55,46,61,53,36,94,83,66,29.94,29.72,29.58,10,9,3,21,14,31,0.64,6,,248
2011-11-24,51,45,39,39,34,30,71,64,58,30.27,30.19,30.03,10,10,10,15,10,24,0.00,1,,312
2011-11-25,64,54,44,43,38,34,76,58,32,30.29,30.24,30.20,10,10,10,12,7,16,0.00,0,,252
2011-11-26,62,50,39,45,39,36,87,67,39,30.28,30.24,30.20,10,10,10,8,4,,0.00,0,,235
2011-11-27,66,54,42,52,48,37,87,74,59,30.23,30.19,30.16,10,10,10,16,8,24,0.00,0,,186
2011-11-28,66,62,57,57,54,52,88,79,68,30.19,30.15,30.09,10,10,10,15,11,21,0.00,5,,164
2011-11-29,64,58,51,61,54,46,94,87,77,30.05,29.89,29.73,10,8,2,21,12,29,0.47,6,,160
2011-11-30,50,47,44,45,36,28,82,66,50,29.99,29.81,29.72,10,10,10,22,15,31,0.10,4,,248